QPF
0.00 0.00 0.00 0.00 0.00 0.00 0.00 0.00 0.00 0.01 0.00 0.00 0.01 0.01 0.02 0.02 0.01 0.02 0.02 0.02 0.03 0.02 0.02 0.03 0.03 0.02 0.02 0.01 0.01 0.02 0.02 0.02 0.03 0.04 0.05 0.06 0.06 0.07 0.07 0.06 0.07 0.07 0.06
0.00 0.00 0.00 0.00 0.00 0.00 0.00 0.00 0.00 0.01 0.00 0.01 0.01 0.01 0.02 0.02 0.02 0.03 0.03 0.02 0.03 0.03 0.02 0.02 0.02 0.01 0.01 0.01 0.01 0.01 0.02 0.02 0.02 0.03 0.04 0.05 0.06 0.07 0.07 0.07 0.07 0.07 0.05
0.00 0.00 0.00 0.00 0.00 0.00 0.00 0.00 0.00 0.01 0.01 0.01 0.01 0.01 0.01 0.02 0.03 0.03 0.03 0.03 0.03 0.02 0.02 0.02 0.02 0.01 0.01 0.01 0.01 0.01 0.02 0.02 0.02 0.02 0.04 0.05 0.06 0.07 0.06 0.06 0.06 0.06 0.06
0.00 0.00 0.00 0.00 0.00 0.00 0.00 0.00 0.00 0.00 0.01 0.01 0.01 0.03 0.03 0.04 0.03 0.03 0.03 0.03 0.02 0.01 0.01 0.01 0.01 0.01 0.01 0.01 0.01 0.01 0.01 0.02 0.02 0.03 0.04 0.05 0.06 0.07 0.06 0.06 0.04 0.04 0.05
0.00 0.00 0.00 0.00 0.00 0.00 0.00 0.00 0.00 0.00 0.01 0.01 0.01 0.01 0.02 0.03 0.04 0.04 0.02 0.02 0.02 0.02 0.01 0.01 0.01 0.01 0.01 0.01 0.01 0.01 0.01 0.01 0.02 0.02 0.03 0.03 0.04 0.06 0.06 0.04 0.05 0.04 0.04
0.00 0.00 0.00 0.00 0.00 0.00 0.00 0.00 0.00 0.00 0.00 0.00 0.00 0.01 0.01 0.02 0.03 0.04 0.02 0.01 0.01 0.01 0.01 0.02 0.01 0.01 0.02 0.02 0.01 0.01 0.01 0.01 0.01 0.01 0.01 0.02 0.03 0.05 0.07 0.05 0.05 0.05 0.05
0.00 0.00 0.00 0.00 0.00 0.00 0.00 0.00 0.00 0.00 0.00 0.00 0.01 0.01 0.01 0.02 0.02 0.03 0.03 0.03 0.02 0.02 0.02 0.02 0.01 0.01 0.01 0.01 0.01 0.01 0.01 0.01 0.01 0.01 0.01 0.02 0.02 0.04 0.07 0.08 0.06 0.06 0.05
0.00 0.00 0.00 0.00 0.00 0.00 0.00 0.00 0.00 0.00 0.00 0.00 0.00 0.01 0.01 0.01 0.02 0.02 0.04 0.03 0.01 0.01 0.02 0.02 0.02 0.01 0.01 0.00 0.00 0.00 0.00 0.01 0.01 0.01 0.01 0.01 0.02 0.02 0.05 0.08 0.07 0.07 0.06
0.00 0.00 0.00 0.00 0.00 0.00 0.00 0.00 0.00 0.00 0.00 0.00 0.00 0.00 0.00 0.01 0.02 0.02 0.02 0.02 0.01 0.00 0.00 0.01 0.01 0.02 0.02 0.01 0.00 0.00 0.01 0.01 0.01 0.01 0.02 0.02 0.02 0.03 0.04 0.06 0.07 0.06 0.05
0.00 0.00 0.00 0.00 0.00 0.00 0.00 0.00 0.00 0.00 0.00 0.00 0.00 0.00 0.00 0.01 0.02 0.01 0.01 0.01 0.01 0.00 0.00 0.00 0.01 0.02 0.02 0.01 0.02 0.02 0.02 0.01 0.01 0.01 0.01 0.01 0.01 0.02 0.03 0.04 0.06 0.05 0.04
0.00 0.00 0.00 0.00 0.00 0.00 0.00 0.00 0.00 0.00 0.00 0.00 0.00 0.00 0.00 0.00 0.00 0.01 0.01 0.02 0.01 0.01 0.01 0.01 0.01 0.02 0.03 0.03 0.03 0.03 0.03 0.02 0.01 0.02 0.02 0.02 0.02 0.02 0.02 0.02 0.03 0.04 0.03
0.00 0.00 0.00 0.00 0.00 0.00 0.00 0.00 0.00 0.00 0.00 0.00 0.00 0.00 0.00 0.00 0.00 0.00 0.01 0.01 0.02 0.01 0.01 0.01 0.02 0.04 0.04 0.03 0.02 0.02 0.03 0.03 0.03 0.02 0.02 0.02 0.02 0.02 0.02 0.02 0.03 0.04 0.04
0.00 0.00 0.00 0.00 0.00 0.00 0.00 0.00 0.00 0.00 0.00 0.00 0.00 0.00 0.00 0.01 0.01 0.01 0.00 0.00 0.00 0.01 0.01 0.01 0.01 0.02 0.03 0.02 0.02 0.02 0.02 0.02 0.03 0.03 0.02 0.02 0.03 0.03 0.02 0.03 0.03 0.04 0.05
0.00 0.00 0.00 0.00 0.00 0.00 0.00 0.00 0.00 0.00 0.00 0.00 0.00 0.00 0.00 0.00 0.00 0.00 0.01 0.01 0.00 0.00 0.00 0.00 0.01 0.01 0.01 0.01 0.01 0.01 0.01 0.01 0.01 0.02 0.02 0.02 0.03 0.03 0.03 0.03 0.03 0.04 0.05
0.00 0.00 0.00 0.00 0.00 0.00 0.00 0.00 0.00 0.00 0.00 0.00 0.00 0.00 0.00 0.00 0.00 0.00 0.00 0.00 0.01 0.00 0.00 0.00 0.01 0.01 0.01 0.00 0.00 0.00 0.01 0.01 0.01 0.01 0.01 0.02 0.03 0.04 0.05 0.05 0.05 0.04 0.04
0.00 0.00 0.00 0.00 0.00 0.00 0.00 0.00 0.00 0.00 0.00 0.00 0.00 0.00 0.00 0.00 0.00 0.00 0.00 0.00 0.00 0.01 0.01 0.00 0.00 0.00 0.00 0.00 0.00 0.00 0.00 0.00 0.00 0.00 0.01 0.02 0.03 0.03 0.03 0.03 0.03 0.04 0.04
0.00 0.00 0.00 0.00 0.00 0.00 0.00 0.00 0.00 0.00 0.00 0.00 0.00 0.00 0.00 0.00 0.00 0.00 0.00 0.00 0.00 0.01 0.02 0.01 0.01 0.01 0.00 0.00 0.00 0.00 0.00 0.00 0.00 0.00 0.01 0.02 0.02 0.03 0.02 0.02 0.04 0.04 0.05
0.00 0.00 0.00 0.00 0.00 0.00 0.00 0.00 0.00 0.00 0.00 0.00 0.00 0.00 0.00 0.00 0.00 0.00 0.00 0.00 0.00 0.00 0.00 0.01 0.01 0.01 0.01 0.01 0.00 0.01 0.00 0.00 0.00 0.01 0.01 0.01 0.02 0.03 0.03 0.03 0.03 0.04 0.04
0.00 0.00 0.00 0.00 0.00 0.00 0.00 0.00 0.00 0.00 0.00 0.00 0.00 0.00 0.00 0.00 0.00 0.00 0.00 0.00 0.00 0.00 0.00 0.00 0.00 0.00 0.01 0.01 0.00 0.01 0.01 0.01 0.01 0.01 0.01 0.01 0.01 0.02 0.03 0.03 0.04 0.05 0.05
0.00 0.00 0.00 0.00 0.00 0.00 0.00 0.00 0.00 0.00 0.00 0.00 0.00 0.00 0.00 0.00 0.00 0.00 0.00 0.00 0.00 0.00 0.00 0.00 0.00 0.00 0.00 0.00 0.00 0.01 0.01 0.01 0.01 0.01 0.01 0.01 0.01 0.01 0.02 0.02 0.03 0.05 0.06
0.00 0.00 0.00 0.00 0.00 0.00 0.00 0.00 0.00 0.00 0.00 0.00 0.00 0.00 0.00 0.00 0.00 0.00 0.00 0.00 0.00 0.00 0.00 0.00 0.00 0.00 0.00 0.00 0.00 0.00 0.00 0.01 0.01 0.00 0.01 0.01 0.01 0.01 0.01 0.01 0.02 0.02 0.03
0.00 0.00 0.00 0.00 0.00 0.00 0.00 0.00 0.00 0.00 0.00 0.00 0.00 0.00 0.00 0.00 0.00 0.00 0.00 0.00 0.00 0.00 0.00 0.00 0.00 0.00 0.00 0.00 0.00 0.00 0.00 0.00 0.01 0.01 0.01 0.01 0.01 0.01 0.01 0.01 0.02 0.02 0.02
0.00 0.00 0.00 0.00 0.00 0.00 0.00 0.00 0.00 0.00 0.00 0.00 0.00 0.00 0.00 0.00 0.00 0.00 0.00 0.00 0.00 0.00 0.00 0.00 0.00 0.00 0.00 0.00 0.01 0.01 0.01 0.01 0.01 0.01 0.01 0.01 0.01 0.01 0.01 0.01 0.02 0.02 0.02
0.00 0.00 0.00 0.00 0.00 0.00 0.00 0.00 0.00 0.00 0.00 0.00 0.00 0.00 0.00 0.00 0.00 0.00 0.00 0.00 0.00 0.00 0.00 0.00 0.00 0.00 0.00 0.00 0.01 0.01 0.01 0.01 0.01 0.01 0.01 0.01 0.01 0.01 0.01 0.01 0.02 0.02 0.03
0.00 0.00 0.00 0.00 0.00 0.00 0.00 0.00 0.00 0.00 0.00 0.00 0.00 0.00 0.00 0.00 0.00 0.00 0.00 0.00 0.00 0.00 0.00 0.00 0.00 0.00 0.00 0.01 0.01 0.01 0.02 0.02 0.01 0.01 0.01 0.01 0.01 0.01 0.02 0.02 0.02 0.02 0.02
0.00 0.00 0.00 0.00 0.00 0.00 0.00 0.00 0.00 0.00 0.00 0.00 0.00 0.00 0.00 0.00 0.00 0.00 0.00 0.00 0.00 0.00 0.00 0.00 0.00 0.00 0.00 0.00 0.00 0.01 0.01 0.01 0.01 0.02 0.02 0.02 0.02 0.02 0.03 0.03 0.03 0.02 0.03
MSLP
1014.50 1014.67 1014.85 1015.01 1015.11 1015.13 1015.07 1014.95 1014.80 1014.65 1014.53 1014.44 1014.39 1014.36 1014.33 1014.28 1014.19 1014.06 1013.88 1013.66 1013.43 1013.19 1012.96 1012.75 1012.55 1012.38 1012.22 1012.07 1011.92 1011.77 1011.61 1011.45 1011.27 1011.08 1010.89 1010.68 1010.47 1010.27 1010.08 1009.94 1009.86 1009.86 1009.94
1014.35 1014.50 1014.67 1014.81 1014.90 1014.92 1014.87 1014.78 1014.66 1014.54 1014.45 1014.38 1014.35 1014.32 1014.30 1014.25 1014.17 1014.04 1013.86 1013.65 1013.41 1013.16 1012.93 1012.70 1012.50 1012.32 1012.15 1011.99 1011.84 1011.69 1011.54 1011.38 1011.21 1011.03 1010.84 1010.63 1010.41 1010.19 1009.98 1009.81 1009.69 1009.64 1009.67
1014.21 1014.36 1014.51 1014.63 1014.70 1014.72 1014.68 1014.60 1014.50 1014.41 1014.33 1014.28 1014.26 1014.24 1014.21 1014.16 1014.07 1013.94 1013.76 1013.56 1013.33 1013.10 1012.87 1012.66 1012.45 1012.27 1012.09 1011.92 1011.75 1011.58 1011.42 1011.24 1011.07 1010.88 1010.69 1010.49 1010.28 1010.07 1009.86 1009.68 1009.54 1009.46 1009.44
1014.06 1014.22 1014.36 1014.47 1014.53 1014.54 1014.50 1014.44 1014.36 1014.29 1014.23 1014.19 1014.16 1014.14 1014.09 1014.03 1013.92 1013.78 1013.61 1013.41 1013.20 1013.00 1012.79 1012.59 1012.40 1012.20 1012.01 1011.81 1011.60 1011.39 1011.17 1010.96 1010.75 1010.55 1010.36 1010.16 1009.98 1009.79 1009.62 1009.46 1009.33 1009.24 1009.19
1013.89 1014.07 1014.22 1014.33 1014.38 1014.39 1014.36 1014.31 1014.25 1014.20 1014.15 1014.12 1014.08 1014.04 1013.97 1013.88 1013.75 1013.60 1013.42 1013.23 1013.04 1012.86 1012.68 1012.49 1012.30 1012.09 1011.86 1011.61 1011.33 1011.04 1010.74 1010.46 1010.19 1009.96 1009.75 1009.57 1009.41 1009.28 1009.16 1009.05 1008.96 1008.89 1008.85
1013.69 1013.90 1014.07 1014.18 1014.24 1014.25 1014.24 1014.20 1014.17 1014.13 1014.10 1014.07 1014.02 1013.96 1013.86 1013.73 1013.57 1013.39 1013.20 1013.02 1012.85 1012.68 1012.52 1012.34 1012.14 1011.91 1011.62 1011.29 1010.91 1010.51 1010.11 1009.72 1009.37 1009.08 1008.85 1008.69 1008.58 1008.50 1008.46 1008.44 1008.42 1008.40 1008.39
1013.44 1013.69 1013.88 1014.01 1014.08 1014.10 1014.11 1014.10 1014.09 1014.07 1014.05 1014.02 1013.96 1013.86 1013.72 1013.56 1013.36 1013.16 1012.96 1012.77 1012.61 1012.46 1012.31 1012.14 1011.92 1011.64 1011.29 1010.86 1010.36 1009.84 1009.30 1008.80 1008.35 1007.99 1007.74 1007.58 1007.51 1007.52 1007.56 1007.63 1007.71 1007.77 1007.83
1013.15 1013.43 1013.64 1013.78 1013.86 1013.91 1013.94 1013.96 1013.97 1013.98 1013.97 1013.93 1013.85 1013.72 1013.55 1013.34 1013.10 1012.87 1012.66 1012.48 1012.32 1012.19 1012.05 1011.88 1011.64 1011.32 1010.89 1010.36 1009.75 1009.09 1008.42 1007.79 1007.25 1006.82 1006.53 1006.38 1006.36 1006.43 1006.57 1006.74 1006.92 1007.08 1007.22
1012.80 1013.10 1013.32 1013.47 1013.57 1013.64 1013.69 1013.74 1013.78 1013.80 1013.80 1013.76 1013.66 1013.50 1013.28 1013.04 1012.78 1012.52 1012.30 1012.13 1011.99 1011.88 1011.76 1011.59 1011.34 1010.98 1010.49 1009.88 1009.16 1008.38 1007.60 1006.86 1006.23 1005.74 1005.42 1005.28 1005.28 1005.42 1005.64 1005.90 1006.17 1006.43 1006.64
1012.39 1012.69 1012.91 1013.06 1013.18 1013.26 1013.34 1013.42 1013.48 1013.52 1013.52 1013.47 1013.35 1013.16 1012.92 1012.64 1012.36 1012.09 1011.88 1011.72 1011.61 1011.53 1011.44 1011.29 1011.04 1010.67 1010.15 1009.47 1008.68 1007.83 1006.96 1006.14 1005.45 1004.91 1004.57 1004.42 1004.45 1004.62 1004.90 1005.23 1005.56 1005.88 1006.16
1011.92 1012.20 1012.41 1012.56 1012.69 1012.79 1012.89 1012.99 1013.07 1013.12 1013.12 1013.06 1012.92 1012.70 1012.43 1012.14 1011.84 1011.59 1011.39 1011.26 1011.19 1011.15 1011.11 1011.00 1010.78 1010.42 1009.90 1009.21 1008.39 1007.50 1006.59 1005.74 1005.00 1004.44 1004.08 1003.93 1003.96 1004.15 1004.44 1004.80 1005.16 1005.51 1005.82
1011.37 1011.63 1011.82 1011.98 1012.11 1012.23 1012.36 1012.47 1012.57 1012.63 1012.62 1012.55 1012.38 1012.15 1011.86 1011.56 1011.26 1011.02 1010.85 1010.77 1010.75 1010.77 1010.78 1010.73 1010.56 1010.25 1009.76 1009.10 1008.30 1007.42 1006.52 1005.67 1004.93 1004.36 1003.99 1003.83 1003.85 1004.02 1004.30 1004.64 1004.99 1005.32 1005.61
1010.77 1010.99 1011.18 1011.33 1011.48 1011.62 1011.77 1011.90 1012.01 1012.08 1012.07 1011.98 1011.80 1011.55 1011.25 1010.94 1010.66 1010.44 1010.31 1010.27 1010.31 1010.39 1010.47 1010.48 1010.39 1010.14 1009.72 1009.12 1008.38 1007.56 1006.70 1005.89 1005.18 1004.63 1004.26 1004.08 1004.07 1004.20 1004.43 1004.70 1005.00 1005.27 1005.52
1010.12 1010.33 1010.50 1010.67 1010.83 1011.00 1011.18 1011.34 1011.46 1011.53 1011.52 1011.42 1011.23 1010.96 1010.67 1010.36 1010.10 1009.91 1009.81 1009.82 1009.91 1010.05 1010.19 1010.28 1010.25 1010.08 1009.74 1009.23 1008.59 1007.84 1007.07 1006.32 1005.67 1005.14 1004.78 1004.57 1004.52 1004.59 1004.74 1004.93 1005.13 1005.32 1005.48
1009.48 1009.67 1009.85 1010.04 1010.24 1010.44 1010.65 1010.84 1010.98 1011.06 1011.05 1010.94 1010.75 1010.48 1010.19 1009.90 1009.65 1009.49 1009.43 1009.47 1009.61 1009.79 1009.98 1010.12 1010.16 1010.07 1009.81 1009.40 1008.85 1008.21 1007.53 1006.87 1006.27 1005.79 1005.43 1005.20 1005.10 1005.09 1005.14 1005.23 1005.32 1005.41 1005.48
1008.90 1009.09 1009.29 1009.51 1009.75 1010.00 1010.25 1010.47 1010.63 1010.73 1010.72 1010.62 1010.44 1010.18 1009.90 1009.62 1009.40 1009.26 1009.23 1009.29 1009.45 1009.66 1009.88 1010.05 1010.14 1010.10 1009.92 1009.59 1009.13 1008.60 1008.02 1007.44 1006.91 1006.46 1006.11 1005.86 1005.70 1005.61 1005.56 1005.53 1005.52 1005.49 1005.47
1008.44 1008.64 1008.87 1009.13 1009.42 1009.72 1010.02 1010.27 1010.47 1010.58 1010.60 1010.52 1010.34 1010.11 1009.85 1009.60 1009.40 1009.28 1009.26 1009.34 1009.50 1009.71 1009.93 1010.11 1010.21 1010.20 1010.07 1009.81 1009.44 1008.99 1008.50 1008.00 1007.53 1007.12 1006.77 1006.49 1006.27 1006.10 1005.96 1005.82 1005.70 1005.57 1005.46
1008.15 1008.38 1008.65 1008.96 1009.30 1009.65 1009.99 1010.28 1010.52 1010.66 1010.70 1010.64 1010.50 1010.29 1010.06 1009.85 1009.67 1009.58 1009.56 1009.64 1009.78 1009.97 1010.16 1010.32 1010.42 1010.42 1010.31 1010.09 1009.78 1009.40 1008.98 1008.55 1008.13 1007.75 1007.40 1007.09 1006.82 1006.57 1006.33 1006.10 1005.87 1005.65 1005.46
1008.07 1008.34 1008.65 1009.01 1009.40 1009.79 1010.17 1010.50 1010.76 1010.94 1011.01 1010.99 1010.88 1010.72 1010.54 1010.36 1010.22 1010.14 1010.13 1010.19 1010.31 1010.46 1010.61 1010.72 1010.79 1010.77 1010.66 1010.47 1010.19 1009.86 1009.50 1009.12 1008.73 1008.37 1008.01 1007.68 1007.35 1007.03 1006.70 1006.38 1006.06 1005.75 1005.48
1008.19 1008.51 1008.87 1009.27 1009.69 1010.12 1010.53 1010.89 1011.18 1011.39 1011.50 1011.52 1011.46 1011.35 1011.22 1011.08 1010.98 1010.92 1010.91 1010.95 1011.04 1011.14 1011.23 1011.29 1011.31 1011.25 1011.13 1010.94 1010.68 1010.39 1010.06 1009.71 1009.36 1009.00 1008.64 1008.27 1007.89 1007.50 1007.10 1006.68 1006.28 1005.89 1005.54
1008.48 1008.84 1009.24 1009.68 1010.14 1010.59 1011.02 1011.40 1011.72 1011.95 1012.09 1012.16 1012.15 1012.10 1012.02 1011.93 1011.87 1011.83 1011.82 1011.85 1011.89 1011.94 1011.97 1011.97 1011.93 1011.84 1011.69 1011.49 1011.24 1010.96 1010.66 1010.33 1009.99 1009.64 1009.27 1008.87 1008.45 1008.00 1007.52 1007.03 1006.54 1006.07 1005.64
1008.89 1009.29 1009.72 1010.18 1010.66 1011.12 1011.56 1011.95 1012.28 1012.53 1012.71 1012.81 1012.86 1012.86 1012.84 1012.80 1012.77 1012.76 1012.75 1012.76 1012.77 1012.76 1012.74 1012.68 1012.59 1012.45 1012.27 1012.05 1011.81 1011.54 1011.25 1010.94 1010.62 1010.27 1009.88 1009.46 1009.00 1008.50 1007.96 1007.40 1006.84 1006.29 1005.78
1009.32 1009.75 1010.21 1010.68 1011.16 1011.63 1012.06 1012.45 1012.78 1013.05 1013.25 1013.39 1013.48 1013.54 1013.56 1013.58 1013.59 1013.59 1013.59 1013.58 1013.56 1013.51 1013.43 1013.32 1013.18 1013.00 1012.79 1012.56 1012.31 1012.04 1011.77 1011.47 1011.16 1010.81 1010.42 1009.99 1009.50 1008.96 1008.38 1007.78 1007.16 1006.54 1005.96
1009.69 1010.16 1010.63 1011.11 1011.58 1012.04 1012.46 1012.83 1013.16 1013.43 1013.65 1013.82 1013.95 1014.04 1014.12 1014.17 1014.21 1014.23 1014.23 1014.21 1014.16 1014.08 1013.96 1013.80 1013.62 1013.40 1013.17 1012.92 1012.67 1012.41 1012.14 1011.85 1011.55 1011.21 1010.82 1010.38 1009.89 1009.33 1008.74 1008.10 1007.45 1006.79 1006.16
1009.96 1010.44 1010.93 1011.40 1011.86 1012.29 1012.69 1013.05 1013.36 1013.63 1013.85 1014.04 1014.20 1014.34 1014.44 1014.53 1014.60 1014.64 1014.64 1014.61 1014.54 1014.43 1014.28 1014.08 1013.86 1013.62 1013.37 1013.11 1012.85 1012.58 1012.32 1012.04 1011.74 1011.40 1011.03 1010.60 1010.11 1009.56 1008.97 1008.34 1007.68 1007.02 1006.37
1010.11 1010.60 1011.08 1011.54 1011.98 1012.38 1012.75 1013.08 1013.38 1013.64 1013.87 1014.07 1014.25 1014.41 1014.55 1014.67 1014.75 1014.81 1014.82 1014.78 1014.70 1014.56 1014.38 1014.17 1013.92 1013.66 1013.38 1013.11 1012.83 1012.56 1012.29 1012.01 1011.71 1011.38 1011.01 1010.59 1010.12 1009.60 1009.04 1008.44 1007.82 1007.19 1006.56
Thickness
5688 5684 5681 5677 5674 5670 5667 5664 5661 5658 5656 5655 5653 5652 5651 5650 5649 5649 5649 5649 5649 5650 5650 5651 5652 5653 5654 5656 5658 5660 5662 5664 5664 5669 5674 5679 5683 5686 5689 5691 5694 5696 5698
5690 5686 5682 5678 5675 5671 5668 5665 5662 5659 5658 5656 5654 5652 5651 5650 5650 5649 5649 5649 5648 5648 5648 5648 5649 5651 5651 5652 5654 5656 5657 5660 5662 5664 5667 5672 5676 5679 5682 5684 5687 5690 5692
5690 5686 5682 5679 5675 5672 5669 5666 5664 5661 5659 5657 5655 5653 5652 5651 5650 5650 5649 5648 5647 5647 5646 5646 5646 5647 5647 5648 5650 5651 5653 5656 5658 5660 5662 5665 5669 5672 5675 5678 5680 5682 5684
5691 5687 5683 5680 5676 5673 5670 5667 5665 5662 5660 5658 5656 5654 5653 5652 5651 5651 5650 5648 5647 5646 5646 5645 5645 5646 5646 5646 5647 5648 5649 5651 5653 5655 5657 5660 5662 5666 5668 5670 5672 5674 5676
5692 5687 5684 5681 5677 5674 5671 5668 5666 5663 5661 5659 5657 5655 5654 5654 5653 5652 5650 5649 5647 5646 5645 5645 5645 5646 5646 5646 5646 5646 5647 5647 5649 5650 5652 5655 5657 5659 5662 5664 5665 5666 5669
5692 5688 5685 5681 5678 5674 5671 5669 5666 5664 5661 5659 5657 5655 5654 5654 5655 5654 5652 5649 5647 5645 5644 5644 5644 5645 5645 5646 5646 5647 5647 5646 5647 5647 5649 5650 5652 5655 5657 5658 5659 5660 5662
5692 5688 5685 5681 5678 5675 5672 5669 5666 5664 5661 5659 5657 5655 5654 5654 5655 5654 5653 5650 5647 5646 5644 5643 5643 5644 5643 5643 5644 5645 5646 5647 5648 5647 5647 5648 5649 5652 5652 5654 5655 5656 5657
5691 5688 5685 5681 5678 5675 5671 5669 5666 5664 5661 5659 5658 5656 5654 5655 5655 5654 5652 5649 5647 5645 5644 5643 5642 5642 5642 5642 5642 5642 5643 5644 5645 5646 5647 5647 5648 5649 5650 5651 5651 5652 5652
5690 5687 5684 5681 5677 5674 5671 5669 5666 5664 5662 5660 5658 5656 5655 5654 5655 5654 5652 5648 5646 5645 5644 5643 5642 5641 5642 5642 5641 5640 5641 5642 5644 5645 5645 5645 5646 5647 5648 5647 5646 5647 5648
5691 5688 5685 5681 5677 5674 5671 5669 5666 5663 5662 5660 5658 5657 5655 5654 5654 5653 5652 5647 5645 5644 5643 5642 5642 5641 5642 5641 5639 5638 5638 5640 5640 5642 5642 5642 5643 5644 5645 5644 5644 5643 5643
5691 5687 5684 5680 5677 5674 5671 5668 5665 5663 5661 5659 5657 5656 5655 5654 5653 5653 5651 5647 5644 5643 5641 5640 5640 5641 5640 5640 5639 5637 5638 5638 5638 5638 5638 5638 5639 5640 5640 5641 5641 5640 5640
5689 5685 5682 5679 5676 5674 5669 5666 5664 5661 5659 5657 5655 5654 5654 5653 5652 5651 5650 5648 5646 5642 5641 5640 5639 5639 5638 5638 5637 5637 5637 5637 5635 5635 5634 5634 5635 5636 5637 5637 5637 5637 5637
5685 5682 5679 5676 5673 5670 5667 5664 5661 5659 5656 5654 5652 5651 5651 5651 5650 5650 5649 5647 5645 5642 5640 5639 5638 5637 5636 5635 5635 5635 5634 5633 5632 5631 5631 5631 5632 5633 5633 5633 5633 5633 5632
5681 5678 5674 5671 5669 5666 5664 5661 5658 5656 5653 5651 5649 5648 5647 5647 5646 5646 5644 5643 5642 5640 5637 5636 5635 5633 5632 5631 5631 5630 5630 5629 5628 5627 5627 5628 5628 5628 5628 5628 5627 5627 5626
5677 5673 5670 5667 5664 5662 5660 5657 5655 5654 5651 5649 5647 5645 5643 5642 5643 5643 5640 5639 5637 5635 5632 5630 5628 5626 5625 5625 5624 5624 5624 5624 5624 5623 5623 5623 5623 5623 5623 5623 5622 5622 5621
5671 5668 5664 5662 5659 5656 5654 5652 5651 5649 5648 5646 5645 5642 5641 5640 5640 5639 5638 5636 5634 5631 5626 5622 5620 5618 5617 5617 5616 5617 5617 5618 5618 5618 5618 5618 5618 5618 5618 5618 5617 5617 5617
5666 5663 5659 5656 5653 5650 5648 5645 5643 5642 5641 5639 5637 5636 5635 5635 5634 5632 5631 5628 5626 5623 5618 5615 5613 5611 5610 5610 5609 5609 5609 5610 5610 5611 5611 5612 5612 5612 5612 5612 5612 5611 5611
5660 5658 5653 5650 5647 5644 5641 5638 5635 5632 5630 5628 5628 5627 5626 5625 5624 5623 5621 5619 5614 5611 5608 5606 5605 5604 5602 5602 5602 5602 5602 5602 5602 5602 5603 5603 5604 5604 5605 5606 5605 5605 5605
5652 5648 5645 5642 5639 5636 5633 5630 5627 5623 5620 5617 5616 5615 5615 5614 5613 5611 5609 5606 5602 5599 5597 5595 5594 5594 5593 5593 5593 5593 5592 5592 5592 5593 5593 5594 5594 5595 5596 5597 5597 5598 5597
5643 5642 5638 5633 5629 5626 5623 5620 5616 5613 5610 5607 5605 5603 5602 5601 5599 5596 5594 5592 5590 5588 5586 5584 5583 5582 5582 5582 5581 5581 5581 5581 5581 5581 5581 5582 5583 5584 5585 5587 5587 5588 5589
5632 5630 5628 5623 5619 5615 5612 5609 5605 5602 5598 5595 5592 5592 5591 5588 5585 5582 5580 5578 5576 5574 5572 5571 5570 5569 5568 5568 5568 5567 5567 5567 5567 5568 5569 5569 5570 5572 5573 5575 5576 5577 5579
5621 5617 5614 5610 5607 5604 5600 5597 5594 5590 5587 5583 5580 5579 5578 5574 5571 5569 5566 5565 5563 5561 5559 5557 5556 5555 5554 5553 5552 5552 5552 5551 5552 5552 5553 5555 5556 5558 5560 5561 5563 5565 5566
5609 5605 5601 5597 5594 5592 5588 5584 5581 5577 5574 5571 5568 5566 5563 5561 5558 5556 5554 5551 5550 5548 5546 5544 5543 5541 5540 5539 5538 5536 5536 5535 5535 5535 5536 5538 5540 5542 5544 5546 5548 5550 5552
5596 5592 5588 5584 5581 5577 5574 5571 5567 5565 5562 5558 5556 5553 5550 5547 5545 5543 5540 5538 5536 5534 5532 5531 5529 5527 5526 5524 5523 5521 5520 5519 5519 5520 5520 5521 5523 5524 5527 5530 5533 5535 5537
5583 5579 5575 5571 5568 5564 5561 5558 5554 5551 5549 5546 5543 5540 5537 5534 5532 5529 5527 5525 5522 5520 5519 5517 5515 5513 5512 5510 5508 5506 5505 5504 5504 5504 5505 5505 5506 5508 5509 5512 5516 5519 5522
5569 5566 5562 5558 5554 5551 5548 5545 5542 5539 5536 5533 5530 5527 5524 5521 5518 5516 5513 5511 5509 5507 5505 5503 5501 5499 5498 5496 5494 5492 5491 5490 5489 5488 5488 5489 5490 5492 5493 5495 5498 5502 5506